,,,PA_Meas_PMT16A,,PR_Meas_QMR101_102,,RH_Meas_QMH101,,SR_Meas_QMS101,,TA_Meas_QMH101,,GenWind,,GenWind,
date,time,status,PA,status,PR,status,RH,status,SR,status,TA,status,DirAvg,status,SpdAvg,
2009-11-16, 00:00:05,VALID,1009.63,VALID,0,VALID,73.6572,VALID,0.105969,VALID,23.5948,VALID,98,VALID,0.471094,
2009-11-16, 00:01:05,VALID,1009.66,VALID,0,VALID,73.6724,VALID,0.105969,VALID,23.5948,VALID,86,VALID,0.755078,
2009-11-16, 00:02:05,VALID,1009.67,VALID,0,VALID,73.6724,VALID,0.105969,VALID,23.5735,VALID,82,VALID,0.487109,
2009-11-16, 00:03:05,VALID,1009.65,VALID,0,VALID,73.68,VALID,0.105969,VALID,23.5948,VALID,103,VALID,0.598047,
2009-11-16, 00:04:05,VALID,1009.66,VALID,0,VALID,73.6648,VALID,0.105969,VALID,23.5948,VALID,103,VALID,0.329297,
2009-11-16, 00:05:05,VALID,1009.66,VALID,0,VALID,73.6724,VALID,0.105969,VALID,23.5948,VALID,103,VALID,0.201172,
2009-11-16, 00:06:05,VALID,1009.66,VALID,0,VALID,73.7334,VALID,0.105969,VALID,23.5948,VALID,100,VALID,0.939453,
2009-11-16, 00:07:05,VALID,1009.65,VALID,0,VALID,73.7182,VALID,0.105969,VALID,23.5948,VALID,97,VALID,0.886719,
2009-11-16, 00:08:05,VALID,1009.65,VALID,0,VALID,73.7105,VALID,0.105969,VALID,23.5948,VALID,90,VALID,0.644922,
2009-11-16, 00:09:05,VALID,1009.66,VALID,0,VALID,73.7182,VALID,0.105969,VALID,23.5753,VALID,70,VALID,0.591797,
2009-11-16, 00:10:05,VALID,1009.66,VALID,0,VALID,73.7182,VALID,0.105969,VALID,23.5948,VALID,46,VALID,0.213672,
2009-11-16, 00:11:05,VALID,1009.65,VALID,0,VALID,73.7182,VALID,0.105969,VALID,23.5948,VALID,46,VALID,0.29375,
2009-11-16, 00:12:05,VALID,1009.66,VALID,0,VALID,73.7334,VALID,0.105969,VALID,23.5558,VALID,46,VALID,0.354688,
2009-11-16, 00:13:05,VALID,1009.64,VALID,0,VALID,73.7334,VALID,0.105969,VALID,23.5558,VALID,46,VALID,0.326953,
2009-11-16, 00:14:05,VALID,1009.62,VALID,0,VALID,73.741,VALID,0.105969,VALID,23.5558,VALID,46,VALID,0.0101562,
2009-11-16, 00:15:05,VALID,1009.62,VALID,0,VALID,73.7029,VALID,0.105969,VALID,23.5753,VALID,46,VALID,0,
2009-11-16, 00:16:05,VALID,1009.6,VALID,0,VALID,73.7487,VALID,0.105969,VALID,23.5558,VALID,46,VALID,0,
2009-11-16, 00:17:05,VALID,1009.6,VALID,0,VALID,73.741,VALID,0.105969,VALID,23.5558,VALID,46,VALID,0,
2009-11-16, 00:18:05,VALID,1009.59,VALID,0,VALID,73.7182,VALID,0,VALID,23.5771,VALID,46,VALID,0,
2009-11-16, 00:19:05,VALID,1009.57,VALID,0,VALID,73.741,VALID,0.105969,VALID,23.5558,VALID,46,VALID,0,
2009-11-16, 00:20:05,VALID,1009.56,VALID,0,VALID,73.7334,VALID,0.105969,VALID,23.5558,VALID,46,VALID,0.144922,
2009-11-16, 00:21:05,VALID,1009.55,VALID,0,VALID,73.7258,VALID,0.105969,VALID,23.5558,VALID,46,VALID,0.0890625,
2009-11-16, 00:22:05,VALID,1009.51,VALID,0,VALID,73.7868,VALID,0.105969,VALID,23.5558,VALID,46,VALID,0,
2009-11-16, 00:23:05,VALID,1009.55,VALID,0,VALID,73.7487,VALID,0,VALID,23.5771,VALID,46,VALID,0,
2009-11-16, 00:24:05,VALID,1009.54,VALID,0,VALID,73.7487,VALID,0.105969,VALID,23.5363,VALID,46,VALID,0,
2009-11-16, 00:25:05,VALID,1009.51,VALID,0,VALID,73.7792,VALID,0,VALID,23.5363,VALID,46,VALID,0,
2009-11-16, 00:26:05,VALID,1009.51,VALID,0,VALID,73.7792,VALID,0,VALID,23.5558,VALID,46,VALID,0,
2009-11-16, 00:27:05,VALID,1009.51,VALID,0,VALID,73.7792,VALID,0.105969,VALID,23.5363,VALID,46,VALID,0,
2009-11-16, 00:28:05,VALID,1009.49,VALID,0,VALID,73.7715,VALID,0,VALID,23.5363,VALID,46,VALID,0,
2009-11-16, 00:29:05,VALID,1009.48,VALID,0,VALID,73.802,VALID,0,VALID,23.5363,VALID,46,VALID,0,
2009-11-16, 00:30:05,VALID,1009.44,VALID,0,VALID,73.7715,VALID,0,VALID,23.5558,VALID,46,VALID,0,
2009-11-16, 00:31:05,VALID,1009.44,VALID,0,VALID,73.7715,VALID,0.105969,VALID,23.5363,VALID,46,VALID,0,
2009-11-16, 00:32:05,VALID,1009.45,VALID,0.5,VALID,73.7792,VALID,0,VALID,23.5363,VALID,46,VALID,0,
2009-11-16, 00:33:05,VALID,1009.45,VALID,0,VALID,73.7792,VALID,0,VALID,23.5576,VALID,46,VALID,0.0960938,
2009-11-16, 00:34:05,VALID,1009.4,VALID,0,VALID,73.7944,VALID,0.105969,VALID,23.5558,VALID,46,VALID,0,
2009-11-16, 00:35:05,VALID,1009.41,VALID,0,VALID,73.7487,VALID,0.105969,VALID,23.5753,VALID,46,VALID,0.131641,
2009-11-16, 00:36:05,VALID,1009.36,VALID,0,VALID,73.7182,VALID,0.105969,VALID,23.5753,VALID,46,VALID,0.203516,
2009-11-16, 00:37:05,VALID,1009.41,VALID,0,VALID,73.7182,VALID,0.105969,VALID,23.5753,VALID,142,VALID,0.381641,
2009-11-16, 00:38:05,VALID,1009.39,VALID,0,VALID,73.7334,VALID,0,VALID,23.5558,VALID,142,VALID,0.146875,
2009-11-16, 00:39:05,VALID,1009.38,VALID,0,VALID,73.741,VALID,0.105969,VALID,23.5966,VALID,142,VALID,0.155859,
2009-11-16, 00:40:05,VALID,1009.36,VALID,0,VALID,73.741,VALID,0,VALID,23.5558,VALID,142,VALID,0.271484,
2009-11-16, 00:41:05,VALID,1009.36,VALID,0,VALID,73.741,VALID,0,VALID,23.5753,VALID,142,VALID,0.355859,
2009-11-16, 00:42:05,VALID,1009.36,VALID,0,VALID,73.7334,VALID,0.105969,VALID,23.5966,VALID,142,VALID,0.325781,
2009-11-16, 00:43:05,VALID,1009.33,VALID,0,VALID,73.741,VALID,0.105969,VALID,23.5753,VALID,142,VALID,0.383203,
2009-11-16, 00:44:05,VALID,1009.34,VALID,0,VALID,73.7258,VALID,0,VALID,23.5753,VALID,142,VALID,0.401953,
2009-11-16, 00:45:05,VALID,1009.34,VALID,0,VALID,73.7639,VALID,0.105969,VALID,23.5558,VALID,143,VALID,0.472656,
2009-11-16, 00:46:05,VALID,1009.31,VALID,0,VALID,73.7639,VALID,0.105969,VALID,23.5753,VALID,162,VALID,0.567187,
2009-11-16, 00:47:05,VALID,1009.31,VALID,0,VALID,73.7487,VALID,0,VALID,23.5576,VALID,162,VALID,0.540625,
2009-11-16, 00:48:05,VALID,1009.33,VALID,0,VALID,73.7944,VALID,0,VALID,23.5576,VALID,162,VALID,0.526953,
2009-11-16, 00:49:05,VALID,1009.35,VALID,0,VALID,73.802,VALID,0,VALID,23.5363,VALID,162,VALID,0.489062,
2009-11-16, 00:50:05,VALID,1009.32,VALID,0,VALID,73.7715,VALID,0.105969,VALID,23.5363,VALID,162,VALID,0.495703,
2009-11-16, 00:51:05,VALID,1009.31,VALID,0,VALID,73.7944,VALID,0.105969,VALID,23.5363,VALID,159,VALID,0.623438,
2009-11-16, 00:52:05,VALID,1009.3,VALID,0,VALID,73.7792,VALID,0.105969,VALID,23.5363,VALID,141,VALID,0.651953,
2009-11-16, 00:53:05,VALID,1009.3,VALID,0,VALID,73.7792,VALID,0.105969,VALID,23.5381,VALID,138,VALID,0.672266,
2009-11-16, 00:54:05,VALID,1009.3,VALID,0,VALID,73.7715,VALID,0.105969,VALID,23.5169,VALID,138,VALID,0.472656,
2009-11-16, 00:55:05,VALID,1009.32,VALID,0,VALID,73.7639,VALID,0.105969,VALID,23.5381,VALID,139,VALID,0.728906,
2009-11-16, 00:56:05,VALID,1009.3,VALID,0,VALID,73.7944,VALID,0.105969,VALID,23.5381,VALID,143,VALID,0.464063,
2009-11-16, 00:57:05,VALID,1009.31,VALID,0,VALID,73.8249,VALID,0.105969,VALID,23.5381,VALID,143,VALID,0.352344,
2009-11-16, 00:58:05,VALID,1009.29,VALID,0,VALID,73.7944,VALID,0.105969,VALID,23.5771,VALID,143,VALID,0.239063,
2009-11-16, 00:59:05,VALID,1009.32,VALID,0,VALID,73.802,VALID,0,VALID,23.5576,VALID,143,VALID,0.147266,
2009-11-16, 01:00:05,VALID,1009.32,VALID,0,VALID,73.7868,VALID,0,VALID,23.5381,VALID,143,VALID,0.163672,
2009-11-16, 01:01:05,VALID,1009.3,VALID,0,VALID,73.802,VALID,0.105969,VALID,23.5169,VALID,143,VALID,0.444922,
2009-11-16, 01:02:05,VALID,1009.28,VALID,0,VALID,73.8402,VALID,0.105969,VALID,23.5169,VALID,143,VALID,0.248437,
2009-11-16, 01:03:05,VALID,1009.3,VALID,0,VALID,73.8325,VALID,0,VALID,23.4974,VALID,143,VALID,0.374219,
2009-11-16, 01:04:05,VALID,1009.31,VALID,0,VALID,73.8325,VALID,0.105969,VALID,23.5381,VALID,143,VALID,0.305469,
2009-11-16, 01:05:05,VALID,1009.3,VALID,0,VALID,73.8249,VALID,0.105969,VALID,23.5186,VALID,143,VALID,0.338672,
2009-11-16, 01:06:05,VALID,1009.31,VALID,0,VALID,73.8249,VALID,0.105969,VALID,23.5169,VALID,143,VALID,0.260938,
2009-11-16, 01:07:05,VALID,1009.31,VALID,0,VALID,73.8173,VALID,0,VALID,23.5169,VALID,143,VALID,0.201172,
2009-11-16, 01:08:05,VALID,1009.3,VALID,0,VALID,73.8783,VALID,0.105969,VALID,23.5169,VALID,143,VALID,0.0691406,
2009-11-16, 01:09:05,VALID,1009.29,VALID,0,VALID,73.8402,VALID,0.105969,VALID,23.5169,VALID,143,VALID,0.377344,
2009-11-16, 01:10:05,VALID,1009.3,VALID,0,VALID,73.8478,VALID,0,VALID,23.5169,VALID,143,VALID,0.357422,
2009-11-16, 01:11:05,VALID,1009.29,VALID,0,VALID,73.8478,VALID,0.105969,VALID,23.4974,VALID,143,VALID,0.419531,
2009-11-16, 01:12:05,VALID,1009.29,VALID,0,VALID,73.8249,VALID,0,VALID,23.4974,VALID,143,VALID,0.392969,
2009-11-16, 01:13:05,VALID,1009.3,VALID,0,VALID,73.8325,VALID,0.105969,VALID,23.5186,VALID,140,VALID,0.711719,
2009-11-16, 01:14:05,VALID,1009.3,VALID,0,VALID,73.8478,VALID,0,VALID,23.5186,VALID,137,VALID,0.786328,
2009-11-16, 01:15:05,VALID,1009.29,VALID,0,VALID,73.8478,VALID,0,VALID,23.4974,VALID,137,VALID,0.417969,
2009-11-16, 01:16:05,VALID,1009.29,VALID,0,VALID,73.8173,VALID,0.105969,VALID,23.4974,VALID,132,VALID,0.477344,
2009-11-16, 01:17:05,VALID,1009.29,VALID,0,VALID,73.8173,VALID,0.105969,VALID,23.4974,VALID,132,VALID,0.608203,
2009-11-16, 01:18:05,VALID,1009.28,VALID,0,VALID,73.8173,VALID,0,VALID,23.5186,VALID,132,VALID,0.399609,
2009-11-16, 01:19:05,VALID,1009.3,VALID,0,VALID,73.7944,VALID,0,VALID,23.5381,VALID,132,VALID,0.404687,
2009-11-16, 01:20:05,VALID,1009.31,VALID,0,VALID,73.8554,VALID,0,VALID,23.5381,VALID,132,VALID,0.216797,
2009-11-16, 01:21:05,VALID,1009.3,VALID,0,VALID,73.8173,VALID,0.105969,VALID,23.5169,VALID,132,VALID,0,
2009-11-16, 01:22:05,VALID,1009.29,VALID,0,VALID,73.8173,VALID,0.105969,VALID,23.5576,VALID,132,VALID,0,
2009-11-16, 01:23:05,VALID,1009.28,VALID,0,VALID,73.8478,VALID,0,VALID,23.5576,VALID,132,VALID,0.580859,
2009-11-16, 01:24:05,VALID,1009.27,VALID,0,VALID,73.8783,VALID,0.105969,VALID,23.5169,VALID,127,VALID,0.914063,
2009-11-16, 01:25:05,VALID,1009.31,VALID,0,VALID,73.863,VALID,0,VALID,23.5169,VALID,127,VALID,0.611719,
2009-11-16, 01:26:04,VALID,1009.27,VALID,0,VALID,73.8554,VALID,0,VALID,23.4974,VALID,140,VALID,0.938672,
2009-11-16, 01:27:04,VALID,1009.3,VALID,0,VALID,73.863,VALID,0,VALID,23.5363,VALID,117,VALID,0.604688,
2009-11-16, 01:28:04,VALID,1009.26,VALID,0,VALID,73.8325,VALID,0.105969,VALID,23.5363,VALID,148,VALID,0.655078,
2009-11-16, 01:29:04,VALID,1009.27,VALID,0,VALID,73.8097,VALID,0,VALID,23.5576,VALID,120,VALID,0.605859,
2009-11-16, 01:30:04,VALID,1009.27,VALID,0,VALID,73.8249,VALID,0.105969,VALID,23.5381,VALID,130,VALID,0.913281,
2009-11-16, 01:31:04,VALID,1009.27,VALID,0,VALID,73.8249,VALID,0,VALID,23.5363,VALID,142,VALID,0.704297,
2009-11-16, 01:32:04,VALID,1009.24,VALID,0,VALID,73.8325,VALID,0.105969,VALID,23.5169,VALID,121,VALID,0.658984,
2009-11-16, 01:33:04,VALID,1009.26,VALID,0,VALID,73.8173,VALID,0.105969,VALID,23.5576,VALID,121,VALID,0.532031,
2009-11-16, 01:34:04,VALID,1009.26,VALID,0,VALID,73.8325,VALID,0.105969,VALID,23.5169,VALID,121,VALID,0.419141,
2009-11-16, 01:35:04,VALID,1009.26,VALID,0,VALID,73.7792,VALID,0,VALID,23.5169,VALID,118,VALID,0.626562,
2009-11-16, 01:36:04,VALID,1009.25,VALID,0,VALID,73.8173,VALID,0,VALID,23.4974,VALID,142,VALID,0.66875,
2009-11-16, 01:37:04,VALID,1009.26,VALID,0,VALID,73.8249,VALID,0.105969,VALID,23.5169,VALID,137,VALID,0.382031,
2009-11-16, 01:38:04,VALID,1009.25,VALID,0,VALID,73.7944,VALID,0,VALID,23.5169,VALID,145,VALID,0.651172,
2009-11-16, 01:39:04,VALID,1009.28,VALID,0,VALID,73.7715,VALID,0.105969,VALID,23.5169,VALID,144,VALID,0.597266,
2009-11-16, 01:40:04,VALID,1009.25,VALID,0,VALID,73.7487,VALID,0,VALID,23.5186,VALID,144,VALID,0.496875,
2009-11-16, 01:41:04,VALID,1009.25,VALID,0,VALID,73.7487,VALID,0,VALID,23.5399,VALID,146,VALID,0.697656,
2009-11-16, 01:42:04,VALID,1009.24,VALID,0,VALID,73.7487,VALID,0,VALID,23.5594,VALID,142,VALID,0.632422,
2009-11-16, 01:43:04,VALID,1009.24,VALID,0,VALID,73.7334,VALID,0,VALID,23.5576,VALID,144,VALID,0.719141,
2009-11-16, 01:44:04,VALID,1009.24,VALID,0,VALID,73.7334,VALID,0,VALID,23.5789,VALID,124,VALID,0.979688,
2009-11-16, 01:45:04,VALID,1009.25,VALID,0,VALID,73.7334,VALID,0,VALID,23.5576,VALID,119,VALID,0.949609,
2009-11-16, 01:46:04,VALID,1009.24,VALID,0,VALID,73.7105,VALID,0,VALID,23.5594,VALID,143,VALID,1.10391,
2009-11-16, 01:47:04,VALID,1009.26,VALID,0,VALID,73.6648,VALID,0,VALID,23.5789,VALID,124,VALID,0.624219,
2009-11-16, 01:48:04,VALID,1009.26,VALID,0,VALID,73.6877,VALID,0,VALID,23.5576,VALID,125,VALID,0.742188,
2009-11-16, 01:49:04,VALID,1009.28,VALID,0,VALID,73.68,VALID,0,VALID,23.5576,VALID,137,VALID,1.38164,
2009-11-16, 01:50:04,VALID,1009.25,VALID,0,VALID,73.7105,VALID,0,VALID,23.5576,VALID,147,VALID,1.2543,
2009-11-16, 01:51:04,VALID,1009.25,VALID,0,VALID,73.6572,VALID,0,VALID,23.5789,VALID,124,VALID,1.16992,
2009-11-16, 01:52:04,VALID,1009.22,VALID,0,VALID,73.7029,VALID,0,VALID,23.5771,VALID,138,VALID,0.652344,
2009-11-16, 01:53:04,VALID,1009.21,VALID,0,VALID,73.6648,VALID,0,VALID,23.5966,VALID,140,VALID,0.799609,
2009-11-16, 01:54:04,VALID,1009.22,VALID,0,VALID,73.7487,VALID,0,VALID,23.5576,VALID,127,VALID,1.49922,
2009-11-16, 01:55:04,VALID,1009.22,VALID,0,VALID,73.7639,VALID,0.105969,VALID,23.5558,VALID,110,VALID,1.45938,
2009-11-16, 01:56:04,VALID,1009.22,VALID,0,VALID,73.7258,VALID,0,VALID,23.5753,VALID,125,VALID,1.19609,
2009-11-16, 01:57:04,VALID,1009.2,VALID,0,VALID,73.7334,VALID,0,VALID,23.5558,VALID,120,VALID,1.49023,
2009-11-16, 01:58:04,VALID,1009.19,VALID,0,VALID,73.7715,VALID,0.105969,VALID,23.5753,VALID,105,VALID,1.17422,
2009-11-16, 01:59:04,VALID,1009.17,VALID,0,VALID,73.7639,VALID,0.105969,VALID,23.5966,VALID,127,VALID,1.12891,
2009-11-16, 02:00:04,VALID,1009.16,VALID,0,VALID,73.7639,VALID,0.105969,VALID,23.6161,VALID,130,VALID,1.21641,
2009-11-16, 02:01:04,VALID,1009.17,VALID,0,VALID,73.7258,VALID,0.105969,VALID,23.5753,VALID,124,VALID,0.913281,
2009-11-16, 02:02:04,VALID,1009.17,VALID,0,VALID,73.7563,VALID,0.105969,VALID,23.5753,VALID,118,VALID,1.37461,
2009-11-16, 02:03:04,VALID,1009.14,VALID,0,VALID,73.741,VALID,0,VALID,23.5948,VALID,133,VALID,0.911719,
2009-11-16, 02:04:04,VALID,1009.15,VALID,0,VALID,73.7334,VALID,0.105969,VALID,23.5753,VALID,109,VALID,0.959766,
2009-11-16, 02:05:04,VALID,1009.13,VALID,0,VALID,73.7792,VALID,0.105969,VALID,23.5966,VALID,124,VALID,1.13555,
2009-11-16, 02:06:04,VALID,1009.09,VALID,0,VALID,73.7563,VALID,0,VALID,23.5966,VALID,139,VALID,0.899609,
2009-11-16, 02:07:04,VALID,1009.08,VALID,0,VALID,73.7639,VALID,0.105969,VALID,23.6161,VALID,115,VALID,0.730469,
2009-11-16, 02:08:04,VALID,1009.05,VALID,0,VALID,73.802,VALID,0.105969,VALID,23.5558,VALID,141,VALID,1.27734,
2009-11-16, 02:09:04,VALID,1009.06,VALID,0,VALID,73.8097,VALID,0.105969,VALID,23.5753,VALID,142,VALID,0.841406,
2009-11-16, 02:10:04,VALID,1009.06,VALID,0,VALID,73.8554,VALID,0,VALID,23.5966,VALID,143,VALID,0.835938,
2009-11-16, 02:11:04,VALID,1009.03,VALID,0,VALID,73.8478,VALID,0,VALID,23.5966,VALID,142,VALID,0.720312,
2009-11-16, 02:12:04,VALID,1009.01,VALID,0,VALID,73.8707,VALID,0,VALID,23.5984,VALID,116,VALID,0.858203,
2009-11-16, 02:13:04,VALID,1008.99,VALID,0,VALID,73.8783,VALID,0,VALID,23.5984,VALID,138,VALID,0.942578,
2009-11-16, 02:14:04,VALID,1008.97,VALID,0,VALID,73.8707,VALID,0,VALID,23.5984,VALID,135,VALID,0.961328,
2009-11-16, 02:15:04,VALID,1008.95,VALID,0,VALID,73.863,VALID,0,VALID,23.5789,VALID,111,VALID,0.900781,
2009-11-16, 02:16:04,VALID,1008.91,VALID,0,VALID,73.8783,VALID,0,VALID,23.5984,VALID,123,VALID,0.705859,
2009-11-16, 02:17:04,VALID,1008.9,VALID,0,VALID,73.9012,VALID,0,VALID,23.5984,VALID,131,VALID,0.976172,
2009-11-16, 02:18:04,VALID,1008.86,VALID,0,VALID,73.9088,VALID,0,VALID,23.5576,VALID,125,VALID,0.883203,
2009-11-16, 02:19:04,VALID,1008.87,VALID,0,VALID,73.8859,VALID,0,VALID,23.5594,VALID,105,VALID,0.683984,
2009-11-16, 02:20:04,VALID,1008.82,VALID,0,VALID,73.8859,VALID,0,VALID,23.5576,VALID,120,VALID,0.761328,
2009-11-16, 02:21:04,VALID,1008.8,VALID,0,VALID,73.8478,VALID,0,VALID,23.5576,VALID,111,VALID,0.396875,
2009-11-16, 02:22:04,VALID,1008.8,VALID,0,VALID,73.7868,VALID,0,VALID,23.5381,VALID,111,VALID,0.561719,
2009-11-16, 02:23:04,VALID,1008.78,VALID,0,VALID,73.802,VALID,0,VALID,23.5594,VALID,149,VALID,0.497656,
2009-11-16, 02:24:04,VALID,1008.79,VALID,0,VALID,73.802,VALID,0,VALID,23.5594,VALID,149,VALID,0.416406,
2009-11-16, 02:25:04,VALID,1008.8,VALID,0,VALID,73.7868,VALID,0.105969,VALID,23.5381,VALID,147,VALID,0.362891,
2009-11-16, 02:26:04,VALID,1008.79,VALID,0,VALID,73.8097,VALID,0,VALID,23.5363,VALID,145,VALID,0.504297,
2009-11-16, 02:27:04,VALID,1008.8,VALID,0,VALID,73.8249,VALID,0.105969,VALID,23.5169,VALID,145,VALID,0.285937,
2009-11-16, 02:28:04,VALID,1008.81,VALID,0,VALID,73.8097,VALID,0,VALID,23.5381,VALID,118,VALID,0.675,
2009-11-16, 02:29:04,VALID,1008.79,VALID,0,VALID,73.9012,VALID,0,VALID,23.5186,VALID,131,VALID,0.750781,
2009-11-16, 02:30:04,VALID,1008.8,VALID,0,VALID,73.8707,VALID,0,VALID,23.5169,VALID,128,VALID,0.586719,
2009-11-16, 02:31:04,VALID,1008.78,VALID,0,VALID,73.9012,VALID,0.105969,VALID,23.5381,VALID,105,VALID,1.25195,
2009-11-16, 02:32:04,VALID,1008.76,VALID,0,VALID,73.8783,VALID,0,VALID,23.5381,VALID,103,VALID,0.689453,
2009-11-16, 02:33:04,VALID,1008.76,VALID,0,VALID,73.8859,VALID,0.105969,VALID,23.5576,VALID,97,VALID,0.726953,
2009-11-16, 02:34:04,VALID,1008.77,VALID,0,VALID,73.8859,VALID,0,VALID,23.5576,VALID,110,VALID,0.790234,
2009-11-16, 02:35:04,VALID,1008.75,VALID,0,VALID,73.8935,VALID,0,VALID,23.5576,VALID,109,VALID,0.440625,
2009-11-16, 02:36:04,VALID,1008.75,VALID,0,VALID,73.9164,VALID,0.105969,VALID,23.5363,VALID,80,VALID,0.892969,
2009-11-16, 02:37:04,VALID,1008.73,VALID,0,VALID,73.9546,VALID,0,VALID,23.5576,VALID,76,VALID,1.14609,
2009-11-16, 02:38:04,VALID,1008.73,VALID,0,VALID,73.9469,VALID,0,VALID,23.5576,VALID,86,VALID,0.757031,
2009-11-16, 02:39:04,VALID,1008.72,VALID,0,VALID,73.9241,VALID,0.105969,VALID,23.5363,VALID,86,VALID,0.85625,
2009-11-16, 02:40:04,VALID,1008.7,VALID,0.5,VALID,73.9164,VALID,0,VALID,23.5381,VALID,104,VALID,0.791016,
2009-11-16, 02:41:04,VALID,1008.7,VALID,0,VALID,73.9317,VALID,0,VALID,23.5381,VALID,77,VALID,0.729688,
2009-11-16, 02:42:04,VALID,1008.69,VALID,0,VALID,73.9241,VALID,0,VALID,23.5381,VALID,86,VALID,0.462891,
2009-11-16, 02:43:04,VALID,1008.67,VALID,0,VALID,73.9164,VALID,0,VALID,23.5381,VALID,86,VALID,0.729297,
2009-11-16, 02:44:04,VALID,1008.66,VALID,0,VALID,73.9393,VALID,0,VALID,23.5186,VALID,97,VALID,1.00508,
2009-11-16, 02:45:04,VALID,1008.66,VALID,0,VALID,73.9317,VALID,0,VALID,23.5186,VALID,78,VALID,0.889453,
2009-11-16, 02:46:04,VALID,1008.64,VALID,0,VALID,73.9317,VALID,0,VALID,23.5186,VALID,83,VALID,0.483594,
2009-11-16, 02:47:04,VALID,1008.63,VALID,0,VALID,73.9393,VALID,0,VALID,23.5186,VALID,63,VALID,1.18086,
2009-11-16, 02:48:04,VALID,1008.61,VALID,0,VALID,73.9469,VALID,0,VALID,23.4797,VALID,79,VALID,0.620703,
2009-11-16, 02:49:04,VALID,1008.6,VALID,0,VALID,73.9622,VALID,0,VALID,23.4992,VALID,50,VALID,0.780078,
2009-11-16, 02:50:04,VALID,1008.57,VALID,0,VALID,73.9622,VALID,0,VALID,23.4797,VALID,55,VALID,0.408984,
2009-11-16, 02:51:04,VALID,1008.57,VALID,0,VALID,73.9469,VALID,0,VALID,23.4797,VALID,96,VALID,0.748047,
2009-11-16, 02:52:04,VALID,1008.52,VALID,0,VALID,73.9088,VALID,0,VALID,23.4797,VALID,92,VALID,0.867578,
2009-11-16, 02:53:04,VALID,1008.52,VALID,0,VALID,73.9393,VALID,0,VALID,23.5009,VALID,92,VALID,0.802734,
2009-11-16, 02:54:04,VALID,1008.51,VALID,0,VALID,73.9546,VALID,0,VALID,23.4797,VALID,101,VALID,0.965234,
2009-11-16, 02:55:04,VALID,1008.49,VALID,0,VALID,73.9241,VALID,0.105969,VALID,23.4974,VALID,90,VALID,0.708594,
2009-11-16, 02:56:04,VALID,1008.49,VALID,0,VALID,73.9546,VALID,0.105969,VALID,23.4779,VALID,92,VALID,0.774609,
2009-11-16, 02:57:04,VALID,1008.46,VALID,0,VALID,73.9469,VALID,0.105969,VALID,23.4779,VALID,60,VALID,0.691406,
2009-11-16, 02:58:04,VALID,1008.45,VALID,0,VALID,73.9546,VALID,0.105969,VALID,23.4974,VALID,88,VALID,0.979688,
2009-11-16, 02:59:04,VALID,1008.45,VALID,0,VALID,73.9546,VALID,0.105969,VALID,23.4779,VALID,92,VALID,0.675781,
2009-11-16, 03:00:04,VALID,1008.4,VALID,0,VALID,73.9698,VALID,0.105969,VALID,23.4584,VALID,98,VALID,1.13437,
2009-11-16, 03:01:04,VALID,1008.37,VALID,0,VALID,73.9774,VALID,0.105969,VALID,23.4779,VALID,99,VALID,1.12617,
2009-11-16, 03:02:04,VALID,1008.36,VALID,0,VALID,73.9774,VALID,0.105969,VALID,23.4779,VALID,93,VALID,0.925781,
2009-11-16, 03:03:04,VALID,1008.36,VALID,0,VALID,74.0156,VALID,0.105969,VALID,23.4779,VALID,96,VALID,1.37617,
2009-11-16, 03:04:04,VALID,1008.32,VALID,0,VALID,74.0079,VALID,0.105969,VALID,23.4584,VALID,86,VALID,0.743359,
2009-11-16, 03:05:04,VALID,1008.3,VALID,0,VALID,73.9927,VALID,0.105969,VALID,23.4797,VALID,85,VALID,0.955078,
2009-11-16, 03:06:04,VALID,1008.25,VALID,0,VALID,73.9927,VALID,0.105969,VALID,23.4779,VALID,95,VALID,0.850391,
2009-11-16, 03:07:04,VALID,1008.25,VALID,0,VALID,74.0308,VALID,0.105969,VALID,23.4584,VALID,104,VALID,0.923437,
2009-11-16, 03:08:04,VALID,1008.26,VALID,0,VALID,74.0156,VALID,0.105969,VALID,23.4584,VALID,109,VALID,0.889844,
2009-11-16, 03:09:04,VALID,1008.24,VALID,0,VALID,74.0079,VALID,0.105969,VALID,23.4584,VALID,116,VALID,0.607422,
2009-11-16, 03:10:04,VALID,1008.21,VALID,0,VALID,74.0308,VALID,0,VALID,23.4602,VALID,129,VALID,0.666016,
2009-11-16, 03:11:04,VALID,1008.19,VALID,0,VALID,74.0156,VALID,0,VALID,23.4602,VALID,148,VALID,0.774219,
2009-11-16, 03:12:04,VALID,1008.18,VALID,0,VALID,74.0156,VALID,0,VALID,23.4602,VALID,166,VALID,0.584375,
2009-11-16, 03:13:04,VALID,1008.17,VALID,0,VALID,74.0079,VALID,0,VALID,23.4602,VALID,166,VALID,0.391797,
2009-11-16, 03:14:04,VALID,1008.14,VALID,0,VALID,74.0384,VALID,0,VALID,23.4407,VALID,145,VALID,0.930078,
2009-11-16, 03:15:04,VALID,1008.11,VALID,0,VALID,74.0461,VALID,0,VALID,23.4017,VALID,130,VALID,0.68125,
2009-11-16, 03:16:04,VALID,1008.08,VALID,0,VALID,74.0232,VALID,0,VALID,23.4017,VALID,129,VALID,0.242188,
2009-11-16, 03:17:04,VALID,1008.06,VALID,0,VALID,74.0689,VALID,0,VALID,23.4017,VALID,144,VALID,0.554297,
2009-11-16, 03:18:04,VALID,1008.02,VALID,0,VALID,74.0537,VALID,0,VALID,23.4,VALID,166,VALID,0.690234,
2009-11-16, 03:19:04,VALID,1008.03,VALID,0,VALID,74.0537,VALID,0,VALID,23.4212,VALID,168,VALID,0.355469,
2009-11-16, 03:20:04,VALID,1007.99,VALID,0,VALID,74.0689,VALID,0,VALID,23.4017,VALID,168,VALID,0.742188,
2009-11-16, 03:21:04,VALID,1007.97,VALID,0,VALID,74.0384,VALID,0,VALID,23.3823,VALID,174,VALID,0.555469,
2009-11-16, 03:22:04,VALID,1007.94,VALID,0,VALID,74.0689,VALID,0,VALID,23.3823,VALID,175,VALID,0.426172,
2009-11-16, 03:23:04,VALID,1007.92,VALID,0,VALID,74.0689,VALID,0,VALID,23.3628,VALID,174,VALID,0.251172,
2009-11-16, 03:24:04,VALID,1007.86,VALID,0,VALID,74.0613,VALID,0,VALID,23.3628,VALID,175,VALID,0,
2009-11-16, 03:25:04,VALID,1007.86,VALID,0,VALID,74.0613,VALID,0.105969,VALID,23.361,VALID,174,VALID,0.397656,
2009-11-16, 03:26:04,VALID,1007.84,VALID,0,VALID,74.0689,VALID,0,VALID,23.361,VALID,149,VALID,0.576172,
2009-11-16, 03:27:04,VALID,1007.84,VALID,0,VALID,74.0461,VALID,0,VALID,23.3823,VALID,149,VALID,0.491016,
2009-11-16, 03:28:04,VALID,1007.84,VALID,0,VALID,74.0613,VALID,0.105969,VALID,23.3415,VALID,149,VALID,0.619922,
2009-11-16, 03:29:04,VALID,1007.86,VALID,0,VALID,74.0842,VALID,0.105969,VALID,23.3415,VALID,140,VALID,0.817969,
2009-11-16, 03:30:04,VALID,1007.82,VALID,0,VALID,74.0766,VALID,0.105969,VALID,23.361,VALID,138,VALID,0.617188,
2009-11-16, 03:31:04,VALID,1007.84,VALID,0,VALID,74.0537,VALID,0.105969,VALID,23.3415,VALID,119,VALID,0.658984,
2009-11-16, 03:32:04,VALID,1007.79,VALID,0,VALID,74.0537,VALID,0.105969,VALID,23.3415,VALID,117,VALID,0.707422,
2009-11-16, 03:33:04,VALID,1007.78,VALID,0,VALID,74.0308,VALID,0.105969,VALID,23.3415,VALID,88,VALID,0.861719,
2009-11-16, 03:34:04,VALID,1007.79,VALID,0,VALID,74.0461,VALID,0.105969,VALID,23.3415,VALID,99,VALID,0.700781,
2009-11-16, 03:35:04,VALID,1007.8,VALID,0,VALID,74.0689,VALID,0.105969,VALID,23.322,VALID,103,VALID,0.828516,
2009-11-16, 03:36:04,VALID,1007.8,VALID,0,VALID,74.0613,VALID,0,VALID,23.3415,VALID,114,VALID,0.658594,
2009-11-16, 03:37:04,VALID,1007.84,VALID,0,VALID,74.0613,VALID,0.105969,VALID,23.3415,VALID,133,VALID,0.753516,
2009-11-16, 03:38:04,VALID,1007.8,VALID,0,VALID,74.0537,VALID,0.105969,VALID,23.322,VALID,150,VALID,1.0543,
2009-11-16, 03:39:04,VALID,1007.86,VALID,0,VALID,74.0613,VALID,0.105969,VALID,23.322,VALID,126,VALID,0.884375,